Volver al catálogo

STARLINK-35815

ActivoComunicacionesVLEO
NORAD 66577·PAYLOAD·🇺🇸 United States

Lanzado Nov 21, 2025 desde Cape Canaveral Space Force Station

Loading…

Próximos Pases (próximas 24 horas)

TLE

ActualizadoSource: CelesTrak SupGP

Época: Sep 15, 2026, 02:50 UTC

1 66577C 25268W   26258.11854167  .00030317  00000+0  10979-2 0  2589
2 66577  43.0039 357.2848 0001841 264.8110 332.4325 15.27568803    13

Sigue STARLINK-35815 en tiempo real con AllMySat

Download on the App Store